FW9599 Weather Reports


time (UTC)temp
C
wind
direction
speed
KPH
gust
KPH
rain 1hr
cm
rain 24hr
cm
rain mn
cm
humidity
%
barometer
mb
20260510071548 24 124 12.9 17.7 0.00 0.00 0.00 61 1005.7
20260510070047 24 96 11.3 22.5 0.00 0.00 0.00 61 1005.8
20260510064543 25 103 11.3 19.3 0.00 0.00 0.00 59 1005.9
20260510063041 25 121 11.3 24.1 0.00 0.00 0.00 59 1006.1
20260510061538 25 150 8.0 12.9 0.00 0.00 0.00 59 1006.2
20260510060037 25 144 8.0 19.3 0.00 0.00 0.00 57 1006.4
20260510054546 25 160 11.3 17.7 0.00 0.00 0.00 57 1006.4
20260510053034 24 157 6.4 9.7 0.00 0.00 0.00 58 1006.4
20260510051534 25 157 3.2 8.0 0.00 0.00 0.00 57 1006.4
20260510050027 25 157 3.2 11.3 0.00 0.00 0.00 56 1006.4
20260510044529 26 155 9.7 16.1 0.00 0.00 0.00 55 1006.5
20260510043027 26 160 11.3 19.3 0.00 0.00 0.00 55 1006.5
20260510041526 26 170 6.4 14.5 0.00 0.00 0.00 55 1006.5
20260510040026 26 186 8.0 17.7 0.00 0.00 0.00 54 1006.5
20260510034526 26 148 9.7 16.1 0.00 0.00 0.00 54 1006.5
20260510033025 26 158 12.9 22.5 0.00 0.00 0.00 52 1006.3
20260510031535 26 184 9.7 16.1 0.00 0.00 0.00 51 1006.3
20260510030030 26 171 9.7 16.1 0.00 0.00 0.00 49 1006.3
20260510024524 26 164 11.3 16.1 0.00 0.00 0.00 47 1006.2
20260510023024 26 156 4.8 11.3 0.00 0.00 0.00 45 1006.0
20260510021529 26 154 8.0 12.9 0.00 0.00 0.00 45 1005.8
20260510020023 27 152 8.0 12.9 0.00 0.00 0.00 44 1005.7
20260510014522 28 146 6.4 12.9 0.00 0.00 0.00 43 1005.5
20260510013022 28 147 9.7 14.5 0.00 0.00 0.00 41 1005.4
20260510011521 30 144 8.0 14.5 0.00 0.00 0.00 39 1005.2
20260510010021 31 144 8.0 22.5 0.00 0.00 0.00 37 1005.1
20260510004521 31 134 9.7 19.3 0.00 0.00 0.00 34 1005.1
20260510003020 32 146 11.3 19.3 0.00 0.00 0.00 33 1004.9
20260510001518 32 155 8.0 22.5 0.00 0.00 0.00 30 1005.0
20260510000022 32 211 8.0 22.5 0.00 0.00 0.00 30 1005.1
20260509234517 32 144 12.9 24.1 0.00 0.00 0.00 34 1005.0
20260509233016 32 180 11.3 20.9 0.00 0.00 0.00 32 1005.1
20260509231514 32 199 8.0 20.9 0.00 0.00 0.00 33 1005.1
20260509230015 32 130 17.7 24.1 0.00 0.00 0.00 32 1005.1
20260509224513 32 147 9.7 24.1 0.00 0.00 0.00 34 1005.2
20260509223018 32 155 8.0 29.0 0.00 0.00 0.00 33 1005.2
20260509221509 32 131 11.3 22.5 0.00 0.00 0.00 32 1005.2
20260509220009 32 194 14.5 32.2 0.00 0.00 0.00 32 1005.4
20260509214506 32 180 9.7 24.1 0.00 0.00 0.00 33 1005.6
20260509213005 32 133 12.9 27.4 0.00 0.00 0.00 32 1005.7
20260509211507 32 183 4.8 22.5 0.00 0.00 0.00 32 1005.9
20260509210109 32 84 8.0 22.5 0.00 0.00 0.00 34 1006.1
20260509204557 32 190 11.3 40.2 0.00 0.00 0.00 36 1006.4
20260509203055 32 153 9.7 22.5 0.00 0.00 0.00 38 1006.7
20260509201552 32 224 8.0 22.5 0.00 0.00 0.00 38 1007.0
20260509200054 31 167 8.0 19.3 0.00 0.00 0.00 40 1007.2
20260509194547 31 206 6.4 24.1 0.00 0.00 0.00 41 1007.3
20260509193046 31 129 11.3 29.0 0.00 0.00 0.00 41 1007.5
20260509191543 31 146 20.9 27.4 0.00 0.00 0.00 41 1007.7
20260509190047 31 155 12.9 24.1 0.00 0.00 0.00 41 1007.9
20260509184538 30 170 4.8 24.1 0.00 0.00 0.00 44 1008.1
20260509183036 30 115 14.5 29.0 0.00 0.00 0.00 42 1008.3
20260509181533 30 168 11.3 22.5 0.00 0.00 0.00 47 1008.7
20260509180029 29 115 19.3 25.7 0.00 0.00 0.00 49 1008.9
20260509174527 28 165 16.1 27.4 0.00 0.00 0.00 49 1009.1
20260509173051 28 157 12.9 27.4 0.00 0.00 0.00 50 1009.4
20260509171527 28 186 12.9 25.7 0.00 0.00 0.00 53 1009.6
20260509170017 28 157 11.3 22.5 0.00 0.00 0.00 53 1009.7
20260509164515 27 135 6.4 22.5 0.00 0.00 0.00 56 1009.7
20260509163015 27 155 12.9 24.1 0.00 0.00 0.00 58 1009.8
20260509161504 27 163 9.7 20.9 0.00 0.00 0.00 59 1009.9
20260509154557 26 148 11.3 17.7 0.00 0.00 0.00 64 1010.0
20260509153054 25 234 4.8 14.5 0.00 0.00 0.00 69 1010.1
20260509151605 25 197 9.7 16.1 0.00 0.00 0.00 71 1010.2
20260509150049 24 209 8.0 14.5 0.00 0.00 0.00 75 1010.2
20260509144539 23 205 0.0 3.2 0.00 0.00 0.00 82 1010.4
20260509143037 22 204 1.6 4.8 0.00 0.00 0.00 84 1010.6
20260509141531 21 204 1.6 4.8 0.00 0.00 0.00 86 1010.8
20260509140026 20 200 3.2 8.0 0.00 0.00 0.00 90 1011.0
20260509134523 19 93 0.0 4.8 0.00 0.00 0.00 93 1011.1
20260509133018 18 92 0.0 6.4 0.00 0.00 0.00 94 1011.2
20260509131513 17 86 0.0 4.8 0.00 0.00 0.00 94 1011.0
20260509130027 16 86 0.0 3.2 0.00 0.00 0.00 94 1010.9
20260509124520 16 86 0.0 1.6 0.00 0.00 0.00 94 1010.8
20260509123001 15 87 0.0 3.2 0.00 0.00 0.00 93 1010.7
20260509121557 15 88 0.0 1.6 0.00 0.00 0.00 93 1010.4
20260509120055 15 88 0.0 4.8 0.00 0.00 0.00 93 1010.1
20260509114625 15 88 0.0 3.2 0.00 0.00 0.00 93 1010.0
20260509113105 16 88 0.0 3.2 0.00 0.00 0.00 92 1009.7
20260509111548 16 88 3.2 6.4 0.00 0.00 0.00 93 1009.7
20260509110056 16 88 0.0 6.4 0.00 0.00 0.00 93 1009.5
20260509104544 16 72 6.4 9.7 0.00 0.00 0.00 93 1009.4
20260509103047 17 178 0.0 6.4 0.00 0.00 0.00 92 1009.3
20260509101555 17 155 6.4 12.9 0.00 0.00 0.00 92 1009.2
20260509100042 17 112 8.0 19.3 0.00 0.00 0.00 92 1009.6
20260509094540 17 95 8.0 16.1 0.00 0.00 0.00 91 1009.7
20260509093038 17 113 4.8 11.3 0.00 0.00 0.00 90 1009.8
20260509091542 17 120 4.8 9.7 0.00 0.00 0.00 89 1009.6
20260509090041 17 122 6.4 12.9 0.00 0.00 0.00 89 1009.6
20260509084534 16 113 4.8 9.7 0.00 0.00 0.00 88 1009.4
20260509083033 17 111 4.8 9.7 0.00 0.00 0.00 87 1009.7
20260509081530 17 111 0.0 9.7 0.00 0.00 0.00 87 1009.4
20260509080027 17 165 3.2 6.4 0.00 0.00 0.00 86 1009.4
20260509074527 17 165 6.4 11.3 0.00 0.00 0.00 86 1009.3
20260509073026 18 194 3.2 12.9 0.00 0.00 0.00 86 1009.4